Change the Weather History Date:

Tuesday, September 17, 2013

  Actual Average Record
Temperature  
Mean Temperature 73 °F 71 °F  
Max Temperature 83 °F 82 °F 99 °F (1896)
Min Temperature 63 °F 60 °F 45 °F (1961)
Degree Days  
Heating Degree Days 0    
Month to date heating degree days 1  
Since 1 July heating degree days 1  
Cooling Degree Days 8    
Month to date cooling degree days 183  
Year to date cooling degree days 1574  
Growing Degree Days 22 (Base 50)    
Moisture  
Dew Point 63 °F    
Average Humidity 69    
Maximum Humidity 87    
Minimum Humidity 51    
Precipitation  
Precipitation 0.00 in 0.11 in 2.93 in (1877)
Month to date precipitation 2.36 1.87  
Year to date precipitation 39.87 34.12  
Snow  
Snow 0.00 in 0.00 in 0.00 in (2002)
Month to date snowfall 0.0 0.0  
Since 1 July snowfall 0.0 0.0  
Since 1 September snowfall 0.0 0.0  
Snow Depth 0.00 in    
Sea Level Pressure  
Sea Level Pressure 30.15 in    
Wind  
Wind Speed 4 mph (NE)    
Max Wind Speed 8 mph    
Max Gust Speed 12 mph    
Visibility 10 miles    
Events      
T = Trace of Precipitation, MM = Missing Value Source: NWS Daily Summary

Daily Weather History Graph

Daily Weather History Graph

Search for Another Location

Airport or City:

Trip Planner

Search our weather history database for the weather conditions in past years. The results will help you decide how hot, cold, wet, or windy it might be!

Date:

Astronomy

Sep. 17, 2013 Rise Set
Actual Time 6:30 AM CDT 6:50 PM CDT
Civil Twilight 6:05 AM CDT 7:16 PM CDT
Nautical Twilight 5:35 AM CDT 7:46 PM CDT
Astronomical Twilight 5:04 AM CDT 8:16 PM CDT
Moon 5:36 PM CDT (9/17) 4:27 AM CDT (9/17)
Length of Visible Light 13h 11m
Length of Day
12h 19m
Waxing Gibbous, 96% of the Moon is Illuminated
Sep 17
Waxing Gibbous
Sep 19
Full
Sep 26
Last Quarter
Oct 4
New
Oct 11
First Quarter

Hourly Weather History & Observations

Time (CDT) Temp. Heat Index Dew Point Humidity Pressure Visibility Wind Dir Wind Speed Gust Speed Precip Events Conditions
12:53 AM 66.9 °F - 62.1 °F 84% 30.16 in 10.0 mi NE 5.8 mph - N/A   Mostly Cloudy
1:53 AM 66.0 °F - 61.0 °F 84% 30.17 in 10.0 mi NE 5.8 mph - N/A   Mostly Cloudy
2:53 AM 64.9 °F - 61.0 °F 87% 30.16 in 10.0 mi NE 5.8 mph - N/A   Mostly Cloudy
3:53 AM 64.0 °F - 60.1 °F 87% 30.15 in 10.0 mi NE 4.6 mph - N/A   Mostly Cloudy
4:53 AM 64.0 °F - 60.1 °F 87% 30.16 in 10.0 mi ENE 5.8 mph - N/A   Mostly Cloudy
5:53 AM 64.0 °F - 60.1 °F 87% 30.17 in 10.0 mi NE 5.8 mph - N/A   Mostly Cloudy
6:53 AM 64.0 °F - 61.0 °F 90% 30.18 in 10.0 mi ENE 5.8 mph - N/A   Mostly Cloudy
7:53 AM 66.0 °F - 62.1 °F 87% 30.19 in 10.0 mi ENE 6.9 mph - N/A   Overcast
8:53 AM 66.9 °F - 62.1 °F 84% 30.19 in 10.0 mi ENE 4.6 mph - N/A   Mostly Cloudy
9:53 AM 69.1 °F - 62.1 °F 78% 30.21 in 10.0 mi Calm Calm - N/A   Mostly Cloudy
10:53 AM 73.0 °F - 63.0 °F 71% 30.20 in 10.0 mi East 3.5 mph - N/A   Mostly Cloudy
11:53 AM 75.9 °F - 63.0 °F 64% 30.18 in 10.0 mi ENE 3.5 mph - N/A   Mostly Cloudy
12:53 PM 77.0 °F - 63.0 °F 62% 30.17 in 10.0 mi NE 5.8 mph - N/A   Mostly Cloudy
1:53 PM 79.0 °F - 64.0 °F 60% 30.14 in 10.0 mi North 3.5 mph - N/A   Mostly Cloudy
2:53 PM 81.0 °F 82.2 °F 63.0 °F 54% 30.12 in 10.0 mi NE 3.5 mph - N/A   Mostly Cloudy
3:53 PM 80.1 °F 81.7 °F 64.0 °F 58% 30.11 in 10.0 mi North 4.6 mph - N/A   Mostly Cloudy
4:53 PM 82.0 °F 83.1 °F 63.0 °F 52% 30.10 in 10.0 mi Calm Calm - N/A   Mostly Cloudy
5:53 PM 80.1 °F 81.7 °F 64.0 °F 58% 30.09 in 10.0 mi NE 4.6 mph - N/A   Scattered Clouds
6:53 PM 77.0 °F - 63.0 °F 62% 30.09 in 10.0 mi NNE 5.8 mph - N/A   Scattered Clouds
7:53 PM 75.9 °F - 64.0 °F 67% 30.10 in 10.0 mi NNE 3.5 mph - N/A   Partly Cloudy
8:53 PM 73.9 °F - 64.9 °F 73% 30.11 in 10.0 mi Calm Calm - N/A   Partly Cloudy
9:53 PM 72.0 °F - 64.0 °F 76% 30.12 in 10.0 mi Calm Calm - N/A   Partly Cloudy
10:53 PM 72.0 °F - 64.9 °F 78% 30.12 in 10.0 mi Calm Calm - N/A   Scattered Clouds
11:53 PM 68.0 °F - 64.9 °F 90% 30.11 in 10.0 mi South 3.5 mph - N/A   Scattered Clouds